Flag for U.S.A. Weather past 2 weeks in Downey, California, U.S.A.

Now
66 °F

Clear.


Feels Like: 66 °F
Forecast: 60 / 90 °F
Wind: No wind

Location: Long Beach Airport

Current Time: Mar 27, 2015 at 1:43:56 AM

Latest Report: Mar 27, 2015 at 12:53 AM


Visibility: 10 mi

Pressure: 30.03 "Hg

Humidity: 56%

Dew point: 50 °F

Location of DowneyLocation

Historic Weather in Downey — Graph

°F

Downey temperature yesterday

Maximum temperature yesterday: 93 °F (at 12:53 PM)
Minimum temperature yesterday: 59 °F (at 4:53 AM)
Average temperature yesterday: 74 °F

Past Weeks' High & Low Weather Summary

 TemperatureHumidityPressure
High93 °F (Mar 26, 12:53 PM)90% (Mar 21, 12:53 AM)30.19 "Hg (Mar 21, 12:53 AM)
Low56 °F (Mar 12, 5:53 AM)10% (Mar 26, 12:53 PM)29.86 "Hg (Mar 16, 5:53 PM)
Average69 °F57%30.02 "Hg
* Reported Mar 11 11:53 PM — Mar 26 11:53 PM, Downey, Weather by CustomWeather, © 2015

Note: Actual official high and low records may vary slightly from our data, if they occured in-between our weather recording intervals... More about our weather records

Advertising

Downey weather history for previous 24 hours

 ConditionsComfort  
Time TempWeatherWind HumidityBarometerVisibility
11:53 PM
Thu, Mar 26
69 °FClear.No wind51%30.03 "Hg10 mi
10:53 PM72 °FClear.No wind46%30.03 "Hg10 mi
9:53 PM72 °FClear.No wind44%30.03 "Hg10 mi
8:53 PM73 °FClear.5 mph38%30.02 "Hg10 mi
7:53 PM75 °FSunny.No wind31%30.00 "Hg10 mi
6:53 PM79 °FSunny.13 mph22%29.98 "Hg10 mi
5:53 PM83 °FSunny.13 mph18%29.97 "Hg10 mi
4:53 PM88 °FSunny.14 mph13%29.97 "Hg10 mi
3:53 PM91 °FSunny.12 mph15%29.98 "Hg10 mi
2:53 PM93 °FSunny.8 mph12%29.99 "Hg10 mi
1:53 PM92 °FSunny.8 mph12%30.02 "Hg10 mi
12:53 PM93 °FSunny.7 mph10%30.04 "Hg10 mi
11:53 AM91 °FSunny.8 mph14%30.06 "Hg10 mi
10:53 AM83 °FSunny.3 mph24%30.08 "Hg10 mi
9:53 AM76 °FSunny.3 mph35%30.09 "Hg10 mi
8:53 AM68 °FSunny.No wind49%30.08 "Hg10 mi
7:53 AM62 °FSunny.No wind70%30.06 "Hg10 mi
6:53 AM59 °FClear.No wind75%30.05 "Hg10 mi
5:53 AM59 °FClear.No wind78%30.04 "Hg10 mi
4:53 AM59 °FClear.No wind78%30.04 "Hg10 mi
3:53 AM60 °FClear.No wind75%30.04 "Hg10 mi
2:53 AM60 °FClear.No wind75%30.04 "Hg10 mi
1:53 AM61 °FClear.No wind67%30.04 "Hg10 mi
Weather by CustomWeather, © 2015

See weather overviewHow to use our weather pages